Alpena, MI

10:47 AM EDT on April 23, 2017 (GMT -0400)
Alpena County Regional

Weather History for KAPN - March, 2014

Change the Weather History Date:

Wednesday, March 12, 2014

  Actual Average Record
Temperature  
Mean Temperature 16 °F 27 °F  
Max Temperature 28 °F 37 °F 66 °F (1990)
Min Temperature 4 °F 18 °F -13 °F (1960)
Degree Days  
Heating Degree Days 49 38  
Month to date heating degree days 594 478  
Since 1 July heating degree days 7083 6210  
Cooling Degree Days 0 0  
Month to date cooling degree days 0 0  
Year to date cooling degree days 0 0  
Moisture  
Dew Point 6 °F    
Average Humidity 66    
Maximum Humidity 81    
Minimum Humidity 51    
Precipitation  
Precipitation T in 0.06 in 0.82 in (1957)
Month to date precipitation 0.20 0.69  
Year to date precipitation 2.73 3.67  
Snow  
Snow 0.20 in 0.40 in 8.30 in (1962)
Month to date snowfall 1.9 5.8  
Since 1 July snowfall 57.4 71.9  
Snow Depth 14.00 in    
Sea Level Pressure  
Sea Level Pressure 29.93 in    
Wind  
Wind Speed 16 mph (North)    
Max Wind Speed 26 mph    
Max Gust Speed 31 mph    
Visibility 8 miles    
Events Snow    
T = Trace of Precipitation, MM = Missing Value Source: NWS Daily Summary

Daily Weather History Graph

Daily Weather History Graph

Search for Another Location

Airport or City:

Trip Planner

Search our weather history database for the weather conditions in past years. The results will help you decide how hot, cold, wet, or windy it might be!

Date:

Astronomy

Mar. 12, 2014 Rise Set
Actual Time 7:52 AM EDT 7:36 PM EDT
Civil Twilight 7:23 AM EDT 8:05 PM EDT
Nautical Twilight 6:48 AM EDT 8:39 PM EDT
Astronomical Twilight 6:14 AM EDT 9:14 PM EDT
Moon 3:58 PM EDT (3/12) 5:31 AM EDT (3/12)
Length of Visible Light 12h 42m
Length of Day
11h 44m
Waxing Gibbous, 85% of the Moon is Illuminated
Mar 12
Waxing Gibbous
Mar 16
Full
Mar 23
Last Quarter
Mar 30
New
Apr 7
First Quarter

Hourly Weather History & Observations

Time (EDT) Temp. Windchill Dew Point Humidity Pressure Visibility Wind Dir Wind Speed Gust Speed Precip Events Conditions
12:54 AM 28.0 °F 18.1 °F 19.9 °F 72% 29.85 in 10.0 mi NNW 11.5 mph - N/A   Clear
1:54 AM 27.0 °F 16.1 °F 19.9 °F 75% 29.83 in 10.0 mi NNW 12.7 mph - N/A   Partly Cloudy
2:15 AM 27.0 °F 16.1 °F 19.9 °F 75% 29.81 in 10.0 mi NNW 12.7 mph - N/A   Mostly Cloudy
2:44 AM 27.0 °F 15.6 °F 21.0 °F 78% 29.80 in 10.0 mi North 13.8 mph - N/A   Mostly Cloudy
2:54 AM 27.0 °F 16.7 °F 21.0 °F 78% 29.83 in 10.0 mi North 11.5 mph - N/A   Overcast
3:14 AM 27.0 °F 15.6 °F 21.9 °F 81% 29.81 in 10.0 mi North 13.8 mph - N/A   Overcast
3:54 AM 27.0 °F 13.5 °F 19.0 °F 72% 29.83 in 10.0 mi NNE 19.6 mph - N/A   Overcast
4:54 AM 25.0 °F 11.7 °F 18.0 °F 75% 29.81 in 10.0 mi North 17.3 mph - N/A   Clear
5:54 AM 21.9 °F 7.8 °F 16.0 °F 78% 29.83 in 10.0 mi North 17.3 mph - N/A   Clear
6:21 AM 19.9 °F 3.5 °F 14.0 °F 78% 29.82 in 10.0 mi North 21.9 mph - N/A   Mostly Cloudy
6:54 AM 19.0 °F 2.7 °F 12.0 °F 74% 29.89 in 10.0 mi North 20.7 mph - N/A   Overcast
7:54 AM 15.1 °F -2.5 °F 8.1 °F 74% 29.93 in 10.0 mi North 20.7 mph - N/A   Overcast
8:54 AM 12.0 °F -6.5 °F 6.1 °F 77% 29.93 in 2.0 mi North 20.7 mph - 0.00 in Snow Light Snow
9:04 AM 10.9 °F -8.8 °F 6.1 °F 81% 29.89 in 1.5 mi North 23.0 mph - 0.00 in Snow Light Snow
9:31 AM 10.0 °F -9.1 °F 5.0 °F 80% 29.91 in 0.8 mi North 20.7 mph - 0.00 in Snow Light Snow
9:54 AM 9.0 °F -11.8 °F 3.9 °F 80% 29.96 in 0.8 mi North 24.2 mph - 0.00 in Snow Light Snow
10:27 AM 8.1 °F -12.6 °F 3.0 °F 80% 29.92 in 0.5 mi North 23.0 mph - 0.00 in Snow Snow
10:54 AM 8.1 °F -13.0 °F 1.9 °F 76% 29.97 in 0.8 mi North 24.2 mph - 0.00 in Snow Light Snow
11:10 AM 9.0 °F -11.8 °F 1.9 °F 73% 29.93 in 1.0 mi North 24.2 mph - 0.00 in Snow Light Snow
11:18 AM 8.1 °F -12.6 °F 1.0 °F 73% 29.93 in 0.8 mi North 23.0 mph 31.1 mph 0.00 in Snow Light Snow
11:24 AM 8.1 °F -12.6 °F 1.0 °F 73% 29.93 in 2.0 mi North 23.0 mph - 0.00 in Snow Light Snow
11:49 AM 8.6 °F -12.7 °F -0.4 °F 67% 29.93 in 5.0 mi North 25.3 mph - 0.00 in Snow Blowing Snow
11:54 AM 8.1 °F -13.8 °F -0.0 °F 70% 29.97 in 6.0 mi North 26.5 mph - 0.00 in Snow Blowing Snow
12:54 PM 9.0 °F -11.4 °F -0.9 °F 64% 29.96 in 10.0 mi North 23.0 mph 28.8 mph N/A   Clear
1:54 PM 10.0 °F -8.1 °F -0.0 °F 64% 29.96 in 10.0 mi NNW 18.4 mph 26.5 mph N/A   Clear
2:54 PM 12.0 °F -6.0 °F -2.0 °F 53% 29.95 in 10.0 mi North 19.6 mph - N/A   Clear
3:54 PM 12.9 °F -3.4 °F -0.9 °F 54% 29.95 in 10.0 mi NNW 16.1 mph 26.5 mph N/A   Clear
4:54 PM 14.0 °F -3.9 °F -0.9 °F 52% 29.96 in 10.0 mi North 20.7 mph - N/A   Clear
5:54 PM 14.0 °F -1.4 °F -2.0 °F 49% 29.97 in 10.0 mi North 15.0 mph - N/A   Clear
6:54 PM 14.0 °F -0.8 °F -2.9 °F 47% 29.99 in 10.0 mi North 13.8 mph - N/A   Clear
7:54 PM 12.9 °F -1.6 °F -0.9 °F 54% 30.02 in 10.0 mi NW 12.7 mph - N/A   Clear
8:54 PM 10.9 °F -1.8 °F -0.0 °F 61% 30.05 in 10.0 mi NW 9.2 mph - N/A   Clear
9:54 PM 9.0 °F -2.2 °F -2.0 °F 61% 30.07 in 10.0 mi NW 6.9 mph - N/A   Clear
10:54 PM 7.0 °F -3.3 °F -2.0 °F 67% 30.08 in 10.0 mi NW 5.8 mph - N/A   Clear
11:54 PM 7.0 °F -3.3 °F -2.0 °F 67% 30.09 in 10.0 mi WNW 5.8 mph - N/A   Clear